TimeCST,TemperatureF,Dew PointF,Humidity,Sea Level PressureIn,VisibilityMPH,Wind Direction,Wind SpeedMPH,Gust SpeedMPH,PrecipitationIn,Events,Conditions,WindDirDegrees,DateUTC
12:23 AM,48.2,44.6,87,30.24,10.0,NE,6.9,-,N/A,,Overcast,50,2012-11-16 06:23:00
12:58 AM,48.0,44.1,86,30.25,10.0,NE,5.8,-,N/A,,Overcast,50,2012-11-16 06:58:00
1:58 AM,48.0,44.1,86,30.25,10.0,ENE,6.9,-,N/A,,Overcast,60,2012-11-16 07:58:00
2:58 AM,48.9,44.1,83,30.24,10.0,Variable,3.5,-,N/A,,Overcast,0,2012-11-16 08:58:00
3:58 AM,48.9,44.1,83,30.24,10.0,ENE,5.8,-,N/A,,Overcast,60,2012-11-16 09:58:00
4:58 AM,48.9,45.0,86,30.25,10.0,ENE,5.8,-,N/A,,Overcast,60,2012-11-16 10:58:00
5:53 AM,48.2,44.6,87,30.25,10.0,ENE,4.6,-,N/A,,Overcast,60,2012-11-16 11:53:00
5:58 AM,48.9,44.1,83,30.25,10.0,Variable,4.6,-,N/A,,Overcast,0,2012-11-16 11:58:00
6:58 AM,50.0,44.1,80,30.27,10.0,NNE,3.5,-,N/A,,Overcast,20,2012-11-16 12:58:00
7:20 AM,50.0,44.6,82,30.27,10.0,Calm,Calm,-,N/A,,Mostly Cloudy,0,2012-11-16 13:20:00
7:30 AM,48.2,44.6,87,30.28,10.0,Calm,Calm,-,N/A,,Scattered Clouds,0,2012-11-16 13:30:00
7:58 AM,52.0,45.0,77,30.29,10.0,Calm,Calm,-,N/A,,Mostly Cloudy,0,2012-11-16 13:58:00
8:54 AM,53.6,44.6,72,30.29,10.0,North,3.5,-,N/A,,Scattered Clouds,350,2012-11-16 14:54:00
8:58 AM,55.0,45.0,69,30.29,10.0,Variable,5.8,-,N/A,,Mostly Cloudy,0,2012-11-16 14:58:00
9:07 AM,55.4,42.8,63,30.29,10.0,NNE,6.9,-,N/A,,Scattered Clouds,20,2012-11-16 15:07:00
9:58 AM,55.9,42.1,60,30.28,10.0,Variable,5.8,-,N/A,,Clear,0,2012-11-16 15:58:00
10:58 AM,61.0,42.1,50,30.27,10.0,Variable,5.8,-,N/A,,Clear,0,2012-11-16 16:58:00
11:58 AM,62.1,42.1,48,30.25,10.0,ENE,5.8,-,N/A,,Clear,60,2012-11-16 17:58:00
12:58 PM,64.9,41.0,42,30.22,10.0,NE,9.2,18.4,N/A,,Clear,40,2012-11-16 18:58:00
1:58 PM,64.0,39.9,41,30.22,10.0,ENE,9.2,-,N/A,,Clear,60,2012-11-16 19:58:00
2:58 PM,63.0,39.9,43,30.22,10.0,ENE,6.9,-,N/A,,Clear,70,2012-11-16 20:58:00
3:58 PM,61.0,42.1,50,30.22,10.0,ENE,5.8,-,N/A,,Clear,60,2012-11-16 21:58:00
4:58 PM,52.0,44.1,74,30.22,10.0,Calm,Calm,-,N/A,,Clear,0,2012-11-16 22:58:00
5:58 PM,46.9,43.0,86,30.24,10.0,Calm,Calm,-,N/A,,Clear,0,2012-11-16 23:58:00
6:58 PM,45.0,41.0,86,30.26,10.0,Calm,Calm,-,N/A,,Clear,0,2012-11-17 00:58:00
7:58 PM,43.0,41.0,93,30.27,10.0,Calm,Calm,-,N/A,,Clear,0,2012-11-17 01:58:00
8:58 PM,41.0,39.0,93,30.28,8.0,Calm,Calm,-,N/A,,Clear,0,2012-11-17 02:58:00
9:58 PM,39.9,37.0,89,30.29,7.0,Calm,Calm,-,N/A,,Clear,0,2012-11-17 03:58:00
10:58 PM,39.0,36.0,89,30.29,6.0,Calm,Calm,-,N/A,,Clear,0,2012-11-17 04:58:00
11:58 PM,37.9,35.1,89,30.28,6.0,Calm,Calm,-,N/A,,Clear,0,2012-11-17 05:58:00